This demonstration page uses our WeatherBlox Daily Observations layout. Learn more.

Left ArrowRight Arrow

Hourly Observations for August 27, 2021

Temp ( °F °C ) Dew Point ( °F °C ) Humidity (%) Winds ( mph kmh ) Pressure ( in mb ) Visibility ( mi km ) Precip ( " mm )
12:51 am 00:51 Clear 83 28.3 54 12.2 37 37 E 10 17 29.74 1007 10 16 0.00 0.00
1:51 am 01:51 Clear 81 27.2 55 12.8 41 41 SE 7 11 29.74 1007 10 16 0.00 0.00
2:51 am 02:51 Clear 80 26.7 55 12.8 42 42 SE 9 15 29.75 1007 10 16 0.00 0.00
3:51 am 03:51 Clear 78 25.6 54 12.2 43 43 ESE 7 11 29.75 1007 10 16 0.00 0.00
4:51 am 04:51 Clear 77 25 55 12.8 47 47 ESE 6 9 29.75 1007 10 16 0.00 0.00
5:51 am 05:51 Sunny 76 24.4 55 12.8 48 48 SE 7 11 29.76 1008 10 16 0.00 0.00
6:51 am 06:51 Sunny 80 26.7 55 12.8 42 42 SE 7 11 29.78 1008 10 16 0.00 0.00
7:51 am 07:51 Sunny 83 28.3 56 13.3 40 40 SE 13 20 29.78 1009 10 16 0.00 0.00
8:51 am 08:51 Sunny 88 31.1 56 13.3 34 34 ESE 10 17 29.79 1009 10 16 0.00 0.00
9:51 am 09:51 Sunny 90 32.2 59 15 35 35 ESE 9 15 29.79 1009 10 16 0.00 0.00
10:51 am 10:51 Sunny 95 35 58 14.4 29 29 undefined N/A 29.76 1008 10 16 0.00 0.00
11:51 am 11:51 Sunny 96 35.6 59 15 29 29 SSE 15 24 29.74 1007 10 16 0.00 0.00
12:51 pm 12:51 Sunny 97 36.1 57 13.9 26 26 undefined N/A 29.70 1006 10 16 0.00 0.00
1:51 pm 13:51 Sunny 99 37.2 56 13.3 24 24 undefined N/A 29.67 1005 10 16 0.00 0.00
2:51 pm 14:51 Sunny 100 37.8 55 12.8 22 22 VRB 5 7 29.64 1004 10 16 0.00 0.00
3:51 pm 15:51 Sunny 101 38.3 55 12.8 22 22 SSE 10 17 29.63 1003 10 16 0.00 0.00
4:11 pm 16:11 Partly Cloudy with Nearby Thunderstorms 101 38.3 55 12.8 22 22 VRB 5 7 29.52 1000 10 16 0.00 0.00
4:36 pm 16:36 Mostly Cloudy with Nearby Thunderstorms 86 30 59 15 40 40 NE 48 78 29.64 1004 6 10 0.00 0.00
4:51 pm 16:51 Partly Cloudy with Nearby Thunderstorms 83 28.3 58 14.4 43 43 ENE 37 59 29.73 1007 10 16 0.00 0.00
5:34 pm 17:34 Mostly Cloudy 84 28.9 56 13.3 38 38 NE 30 48 29.66 1004 10 16 0.00 0.00
5:51 pm 17:51 Mostly Sunny 85 29.4 54 12.2 35 35 ENE 25 41 29.73 1007 10 16 0.00 0.00
6:51 pm 18:51 Clear 85 29.4 52 11.1 32 32 NE 15 24 29.73 1007 10 16 0.00 0.00
7:51 pm 19:51 Clear 82 27.8 54 12.2 38 38 S 9 15 29.73 1007 10 16 0.00 0.00
8:12 pm 20:12 Clear 81 27.2 55 12.8 41 41 SE 12 19 29.69 1005 10 16 0.00 0.00
8:51 pm 20:51 Clear 82 27.8 53 11.7 37 37 SE 14 22 29.76 1008 10 16 0.00 0.00
9:51 pm 21:51 Clear 81 27.2 54 12.2 39 39 E 9 15 29.78 1008 10 16 0.00 0.00
10:51 pm 22:51 Clear 78 25.6 56 13.3 47 47 E 8 13 29.78 1009 10 16 0.00 0.00
11:51 pm 23:51 Clear 80 26.7 54 12.2 41 41 ENE 12 19 29.76 1008 10 16 0.00 0.00

Powered by AerisWeather